Time,TemperatureF,DewpointF,PressureIn,WindDirection,WindDirectionDegrees,WindSpeedMPH,WindSpeedGustMPH,Humidity,HourlyPrecipIn,Conditions,Clouds,dailyrainin,SoftwareType,DateUTC
2013-03-06 00:00:00,61.9,54.7,29.95,South,171,2.0,8.0,77,0.00,,,0.00,meteohub,2013-03-06 05:00:00,
2013-03-06 00:01:00,61.9,54.7,29.95,WSW,246,0.0,8.0,77,0.00,,,0.00,meteohub,2013-03-06 05:01:00,
2013-03-06 00:02:00,61.9,54.7,29.95,WSW,246,2.0,8.0,77,0.00,,,0.00,meteohub,2013-03-06 05:02:00,
2013-03-06 00:07:00,61.9,54.7,29.95,WSW,239,0.0,8.0,77,0.00,,,0.00,meteohub,2013-03-06 05:07:00,
2013-03-06 00:12:00,61.9,54.7,29.95,SW,236,0.0,8.0,77,0.00,,,0.00,meteohub,2013-03-06 05:12:00,
2013-03-06 00:18:00,62.1,55.0,29.94,SW,232,0.0,8.0,78,0.00,,,0.00,meteohub,2013-03-06 05:18:00,
2013-03-06 00:23:00,62.1,55.0,29.94,WSW,244,3.0,5.0,78,0.00,,,0.00,meteohub,2013-03-06 05:23:00,
2013-03-06 00:28:00,62.4,55.4,29.94,WSW,251,3.0,10.0,78,0.00,,,0.00,meteohub,2013-03-06 05:28:00,
2013-03-06 00:33:00,62.8,55.8,29.94,SSW,212,3.0,10.0,78,0.00,,,0.00,meteohub,2013-03-06 05:33:00,
2013-03-06 00:38:00,63.0,55.9,29.94,WSW,240,0.0,10.0,78,0.00,,,0.00,meteohub,2013-03-06 05:38:00,
2013-03-06 00:43:00,63.1,56.1,29.94,SW,233,0.0,7.0,78,0.00,,,0.00,meteohub,2013-03-06 05:43:00,
2013-03-06 00:48:00,63.5,56.5,29.93,South,175,0.0,7.0,78,0.00,,,0.00,meteohub,2013-03-06 05:48:00,
2013-03-06 00:53:00,64.0,57.4,29.93,SW,232,6.0,7.0,79,0.00,,,0.00,meteohub,2013-03-06 05:53:00,
2013-03-06 00:59:00,64.2,57.2,29.93,SW,232,1.0,9.0,78,0.00,,,0.00,meteohub,2013-03-06 05:59:00,
2013-03-06 01:04:00,64.6,57.9,29.93,WSW,237,0.0,9.0,79,0.00,,,0.00,meteohub,2013-03-06 06:04:00,
2013-03-06 01:09:00,64.8,58.1,29.93,SW,230,2.0,9.0,79,0.00,,,0.00,meteohub,2013-03-06 06:09:00,
2013-03-06 01:14:00,64.8,58.1,29.93,WSW,248,5.0,7.0,79,0.00,,,0.00,meteohub,2013-03-06 06:14:00,
2013-03-06 01:19:00,64.9,58.3,29.93,WSW,243,0.0,7.0,79,0.00,,,0.00,meteohub,2013-03-06 06:19:00,
2013-03-06 01:24:00,65.1,58.5,29.93,SW,223,3.0,7.0,79,0.00,,,0.00,meteohub,2013-03-06 06:24:00,
2013-03-06 01:29:00,65.1,58.5,29.93,WSW,246,1.0,11.0,79,0.00,,,0.00,meteohub,2013-03-06 06:29:00,
2013-03-06 01:35:00,65.5,58.8,29.92,SW,219,4.0,11.0,79,0.00,,,0.00,meteohub,2013-03-06 06:35:00,
2013-03-06 01:40:00,65.5,58.8,29.92,South,185,2.0,14.0,79,0.00,,,0.00,meteohub,2013-03-06 06:40:00,
2013-03-06 01:45:00,65.7,59.0,29.92,SSW,205,5.0,14.0,79,0.00,,,0.00,meteohub,2013-03-06 06:45:00,
2013-03-06 01:50:00,65.8,59.2,29.92,WSW,240,5.0,13.0,79,0.00,,,0.00,meteohub,2013-03-06 06:50:00,
2013-03-06 01:55:00,65.8,59.2,29.92,SW,229,6.0,13.0,79,0.00,,,0.00,meteohub,2013-03-06 06:55:00,
2013-03-06 02:00:00,65.8,59.2,29.92,SW,226,3.0,13.0,79,0.00,,,0.00,meteohub,2013-03-06 07:00:00,
2013-03-06 02:05:00,66.0,59.4,29.91,SW,220,0.0,12.0,79,0.00,,,0.00,meteohub,2013-03-06 07:05:00,
2013-03-06 02:10:00,66.0,59.4,29.91,West,264,1.0,12.0,79,0.00,,,0.00,meteohub,2013-03-06 07:10:00,
2013-03-06 02:15:00,66.0,59.4,29.91,SW,236,6.0,12.0,79,0.00,,,0.00,meteohub,2013-03-06 07:15:00,
2013-03-06 02:20:00,66.0,59.4,29.90,West,278,0.0,13.0,79,0.00,,,0.00,meteohub,2013-03-06 07:20:00,
2013-03-06 02:26:00,66.0,59.4,29.90,WSW,239,7.0,13.0,79,0.00,,,0.00,meteohub,2013-03-06 07:26:00,
2013-03-06 02:31:00,65.8,59.5,29.90,West,264,5.0,12.0,80,0.00,,,0.00,meteohub,2013-03-06 07:31:00,
2013-03-06 02:36:00,65.8,59.5,29.89,WSW,244,2.0,12.0,80,0.00,,,0.00,meteohub,2013-03-06 07:36:00,
2013-03-06 02:41:00,65.7,59.7,29.89,WSW,237,0.0,10.0,81,0.00,,,0.00,meteohub,2013-03-06 07:41:00,
2013-03-06 02:46:00,65.5,59.5,29.89,SW,227,0.0,11.0,81,0.00,,,0.00,meteohub,2013-03-06 07:46:00,
2013-03-06 02:51:00,65.3,59.7,29.89,SW,232,2.0,11.0,82,0.00,,,0.00,meteohub,2013-03-06 07:51:00,
2013-03-06 02:56:00,65.3,59.7,29.89,SW,232,0.0,11.0,82,0.01,,,0.01,meteohub,2013-03-06 07:56:00,
2013-03-06 03:01:00,65.1,59.9,29.89,WSW,240,6.0,10.0,83,0.01,,,0.01,meteohub,2013-03-06 08:01:00,
2013-03-06 03:06:00,65.1,59.9,29.89,SW,222,0.0,10.0,83,0.01,,,0.01,meteohub,2013-03-06 08:06:00,
2013-03-06 03:11:00,65.1,59.9,29.89,SW,232,3.0,8.0,83,0.01,,,0.01,meteohub,2013-03-06 08:11:00,
2013-03-06 03:16:00,65.1,59.9,29.89,SW,234,0.0,8.0,83,0.01,,,0.01,meteohub,2013-03-06 08:16:00,
2013-03-06 03:21:00,64.8,59.5,29.89,WNW,301,0.0,16.0,83,0.01,,,0.01,meteohub,2013-03-06 08:21:00,
2013-03-06 03:27:00,64.2,59.0,29.89,North,354,0.0,16.0,83,0.01,,,0.01,meteohub,2013-03-06 08:27:00,
2013-03-06 03:32:00,63.1,57.6,29.89,West,263,1.0,16.0,82,0.01,,,0.01,meteohub,2013-03-06 08:32:00,
2013-03-06 03:37:00,62.1,56.1,29.89,NNW,340,0.0,11.0,81,0.01,,,0.01,meteohub,2013-03-06 08:37:00,
2013-03-06 03:42:00,61.2,55.2,29.89,NW,306,0.0,8.0,81,0.01,,,0.01,meteohub,2013-03-06 08:42:00,
2013-03-06 03:47:00,61.0,55.0,29.90,West,275,0.0,8.0,81,0.01,,,0.01,meteohub,2013-03-06 08:47:00,
2013-03-06 03:52:00,60.4,54.5,29.90,West,278,0.0,4.0,81,0.01,,,0.01,meteohub,2013-03-06 08:52:00,
2013-03-06 03:57:00,60.3,54.3,29.90,SW,234,0.0,7.0,81,0.00,,,0.01,meteohub,2013-03-06 08:57:00,
2013-03-06 04:02:00,60.1,54.3,29.91,WSW,248,3.0,7.0,81,0.00,,,0.01,meteohub,2013-03-06 09:02:00,
2013-03-06 04:07:00,59.9,54.3,29.91,SW,234,0.0,7.0,82,0.00,,,0.01,meteohub,2013-03-06 09:07:00,
2013-03-06 04:12:00,59.9,54.3,29.91,WSW,239,0.0,7.0,82,0.00,,,0.01,meteohub,2013-03-06 09:12:00,
2013-03-06 04:17:00,59.7,54.1,29.91,WSW,237,0.0,7.0,82,0.00,,,0.01,meteohub,2013-03-06 09:17:00,
2013-03-06 04:22:00,59.7,54.1,29.91,NNE,25,0.0,11.0,82,0.00,,,0.01,meteohub,2013-03-06 09:22:00,
2013-03-06 04:27:00,59.5,54.0,29.91,NW,318,0.0,11.0,82,0.00,,,0.01,meteohub,2013-03-06 09:27:00,
2013-03-06 04:32:00,59.5,54.0,29.92,NW,326,1.0,11.0,82,0.00,,,0.01,meteohub,2013-03-06 09:32:00,
2013-03-06 04:37:00,59.5,54.0,29.92,NNW,328,0.0,7.0,82,0.00,,,0.01,meteohub,2013-03-06 09:37:00,
2013-03-06 04:42:00,59.5,54.0,29.92,NW,308,0.0,7.0,82,0.00,,,0.01,meteohub,2013-03-06 09:42:00,
2013-03-06 04:47:00,59.5,54.3,29.93,SW,229,3.0,3.0,83,0.00,,,0.01,meteohub,2013-03-06 09:47:00,
2013-03-06 04:52:00,59.4,54.1,29.93,WSW,241,0.0,3.0,83,0.00,,,0.01,meteohub,2013-03-06 09:52:00,
2013-03-06 04:57:00,59.4,54.1,29.93,NNW,328,0.0,6.0,83,0.00,,,0.01,meteohub,2013-03-06 09:57:00,
2013-03-06 05:03:00,59.0,53.6,29.94,WSW,254,0.0,6.0,82,0.00,,,0.01,meteohub,2013-03-06 10:03:00,
2013-03-06 05:08:00,58.6,52.9,29.94,West,260,0.0,6.0,81,0.00,,,0.01,meteohub,2013-03-06 10:08:00,
2013-03-06 05:13:00,58.6,52.5,29.94,WNW,298,0.0,6.0,80,0.00,,,0.01,meteohub,2013-03-06 10:13:00,
2013-03-06 05:18:00,58.3,52.2,29.96,NNW,337,0.0,5.0,80,0.00,,,0.01,meteohub,2013-03-06 10:18:00,
2013-03-06 05:23:00,57.7,51.3,29.96,North,11,5.0,5.0,79,0.00,,,0.01,meteohub,2013-03-06 10:23:00,
2013-03-06 05:28:00,56.7,49.5,29.96,NW,319,0.0,6.0,77,0.00,,,0.01,meteohub,2013-03-06 10:28:00,
2013-03-06 05:33:00,55.9,48.2,29.98,NW,322,0.0,6.0,75,0.00,,,0.01,meteohub,2013-03-06 10:33:00,
2013-03-06 05:39:00,54.5,45.3,29.98,South,169,0.0,6.0,71,0.00,,,0.01,meteohub,2013-03-06 10:39:00,
2013-03-06 05:44:00,53.2,43.0,29.98,SE,138,0.0,7.0,68,0.00,,,0.01,meteohub,2013-03-06 10:44:00,
2013-03-06 05:49:00,52.5,41.9,30.00,ENE,71,0.0,10.0,67,0.00,,,0.01,meteohub,2013-03-06 10:49:00,
2013-03-06 05:54:00,52.0,40.6,30.00,NNE,27,0.0,10.0,65,0.00,,,0.01,meteohub,2013-03-06 10:54:00,
2013-03-06 05:59:00,51.4,39.7,30.00,SSE,147,1.0,10.0,64,0.00,,,0.01,meteohub,2013-03-06 10:59:00,
2013-03-06 06:04:00,50.7,38.7,30.01,ENE,71,0.0,10.0,63,0.00,,,0.01,meteohub,2013-03-06 11:04:00,
2013-03-06 06:09:00,50.2,36.3,30.01,West,280,1.0,10.0,59,0.00,,,0.01,meteohub,2013-03-06 11:09:00,
2013-03-06 06:14:00,49.3,35.1,30.01,SE,144,0.0,7.0,58,0.00,,,0.01,meteohub,2013-03-06 11:14:00,
2013-03-06 06:19:00,48.7,34.2,30.02,SSE,155,0.0,7.0,57,0.00,,,0.01,meteohub,2013-03-06 11:19:00,
2013-03-06 06:24:00,48.4,33.8,30.02,SW,230,0.0,6.0,57,0.00,,,0.01,meteohub,2013-03-06 11:24:00,
2013-03-06 06:29:00,48.0,33.4,30.02,NNW,335,0.0,8.0,57,0.00,,,0.01,meteohub,2013-03-06 11:29:00,
2013-03-06 06:35:00,47.8,33.3,30.03,East,83,0.0,8.0,57,0.00,,,0.01,meteohub,2013-03-06 11:35:00,
2013-03-06 06:40:00,47.7,32.7,30.03,East,80,0.0,3.0,56,0.00,,,0.01,meteohub,2013-03-06 11:40:00,
2013-03-06 06:45:00,47.3,32.4,30.03,North,6,0.0,6.0,56,0.00,,,0.01,meteohub,2013-03-06 11:45:00,
2013-03-06 06:50:00,47.1,32.7,30.04,North,0,2.0,6.0,57,0.00,,,0.01,meteohub,2013-03-06 11:50:00,
2013-03-06 06:55:00,46.9,32.5,30.04,North,359,0.0,3.0,57,0.00,,,0.01,meteohub,2013-03-06 11:55:00,
2013-03-06 07:00:00,46.8,32.4,30.04,East,93,0.0,3.0,57,0.00,,,0.01,meteohub,2013-03-06 12:00:00,
2013-03-06 07:05:00,46.8,32.4,30.04,East,88,0.0,3.0,57,0.00,,,0.01,meteohub,2013-03-06 12:05:00,
2013-03-06 07:10:00,46.8,32.4,30.04,North,8,0.0,3.0,57,0.00,,,0.01,meteohub,2013-03-06 12:10:00,
2013-03-06 07:15:00,46.8,32.4,30.04,ESE,123,0.0,2.0,57,0.00,,,0.01,meteohub,2013-03-06 12:15:00,
2013-03-06 07:21:00,46.6,32.5,30.05,NNW,336,0.0,2.0,58,0.00,,,0.01,meteohub,2013-03-06 12:21:00,
2013-03-06 07:26:00,46.6,32.5,30.05,WSW,240,0.0,5.0,58,0.00,,,0.01,meteohub,2013-03-06 12:26:00,
2013-03-06 07:31:00,46.6,32.5,30.05,WNW,287,0.0,5.0,58,0.00,,,0.01,meteohub,2013-03-06 12:31:00,
2013-03-06 07:36:00,46.8,32.7,30.05,WSW,240,0.0,5.0,58,0.00,,,0.01,meteohub,2013-03-06 12:36:00,
2013-03-06 07:41:00,46.9,32.9,30.05,ESE,110,0.0,6.0,58,0.00,,,0.01,meteohub,2013-03-06 12:41:00,
2013-03-06 07:46:00,47.5,33.4,30.05,WSW,257,0.0,6.0,58,0.00,,,0.01,meteohub,2013-03-06 12:46:00,
2013-03-06 07:51:00,47.8,33.8,30.07,WNW,285,0.0,6.0,58,0.00,,,0.01,meteohub,2013-03-06 12:51:00,
2013-03-06 07:56:00,48.4,33.8,30.07,WNW,288,0.0,8.0,57,0.00,,,0.01,meteohub,2013-03-06 12:56:00,
2013-03-06 08:02:00,48.6,34.0,30.08,WSW,237,0.0,8.0,57,0.00,,,0.01,meteohub,2013-03-06 13:02:00,
2013-03-06 08:07:00,48.9,34.3,30.08,West,270,0.0,8.0,57,0.00,,,0.01,meteohub,2013-03-06 13:07:00,
2013-03-06 08:12:00,49.5,34.3,30.08,NNW,344,0.0,7.0,56,0.00,,,0.01,meteohub,2013-03-06 13:12:00,
2013-03-06 08:17:00,49.8,34.7,30.08,WNW,298,2.0,7.0,56,0.00,,,0.01,meteohub,2013-03-06 13:17:00,
2013-03-06 08:22:00,49.8,34.3,30.08,SSW,210,0.0,8.0,55,0.00,,,0.01,meteohub,2013-03-06 13:22:00,
2013-03-06 08:27:00,50.2,34.7,30.08,WNW,288,0.0,11.0,55,0.00,,,0.01,meteohub,2013-03-06 13:27:00,
2013-03-06 08:32:00,50.7,35.1,30.08,North,359,3.0,11.0,55,0.00,,,0.01,meteohub,2013-03-06 13:32:00,
2013-03-06 08:37:00,51.1,35.1,30.08,WNW,289,0.0,11.0,54,0.00,,,0.01,meteohub,2013-03-06 13:37:00,
2013-03-06 08:42:00,51.3,34.7,30.08,North,0,0.0,6.0,53,0.00,,,0.01,meteohub,2013-03-06 13:42:00,
2013-03-06 08:47:00,51.4,34.3,30.08,NNW,329,0.0,11.0,52,0.00,,,0.01,meteohub,2013-03-06 13:47:00,
2013-03-06 08:52:00,51.6,34.2,30.08,NNW,347,0.0,11.0,51,0.00,,,0.01,meteohub,2013-03-06 13:52:00,
2013-03-06 08:57:00,52.0,34.0,30.08,WNW,285,0.0,11.0,50,0.00,,,0.01,meteohub,2013-03-06 13:57:00,
2013-03-06 09:02:00,52.2,33.6,30.08,WSW,241,0.0,13.0,49,0.00,,,0.01,meteohub,2013-03-06 14:02:00,
2013-03-06 09:08:00,52.2,32.5,30.08,SW,223,2.0,13.0,47,0.00,,,0.01,meteohub,2013-03-06 14:08:00,
2013-03-06 09:13:00,52.5,32.9,30.08,ENE,62,0.0,13.0,47,0.00,,,0.01,meteohub,2013-03-06 14:13:00,
2013-03-06 09:18:00,52.9,32.2,30.08,NNW,342,0.0,10.0,45,0.00,,,0.01,meteohub,2013-03-06 14:18:00,
2013-03-06 09:23:00,53.1,31.6,30.08,WSW,251,2.0,10.0,44,0.00,,,0.01,meteohub,2013-03-06 14:23:00,
2013-03-06 09:28:00,53.2,31.3,30.08,SW,234,8.0,11.0,43,0.00,,,0.01,meteohub,2013-03-06 14:28:00,
2013-03-06 09:33:00,53.4,32.0,30.08,WSW,243,1.0,11.0,44,0.00,,,0.01,meteohub,2013-03-06 14:33:00,
2013-03-06 09:38:00,54.0,30.7,30.08,SW,215,7.0,11.0,41,0.00,,,0.01,meteohub,2013-03-06 14:38:00,
2013-03-06 09:44:00,54.1,30.9,30.08,SW,230,3.0,11.0,41,0.00,,,0.01,meteohub,2013-03-06 14:44:00,
2013-03-06 09:49:00,54.5,31.3,30.07,West,260,0.0,11.0,41,0.00,,,0.01,meteohub,2013-03-06 14:49:00,
2013-03-06 09:54:00,54.5,30.0,30.07,SW,229,3.0,11.0,39,0.00,,,0.01,meteohub,2013-03-06 14:54:00,
2013-03-06 09:59:00,54.7,30.2,30.07,WSW,244,0.0,11.0,39,0.00,,,0.01,meteohub,2013-03-06 14:59:00,
2013-03-06 10:04:00,55.0,29.8,30.07,SW,227,2.0,11.0,38,0.00,,,0.01,meteohub,2013-03-06 15:04:00,
2013-03-06 10:09:00,54.9,29.1,30.07,SW,236,0.0,11.0,37,0.00,,,0.01,meteohub,2013-03-06 15:09:00,
2013-03-06 10:14:00,55.2,29.5,30.07,WSW,247,1.0,11.0,37,0.00,,,0.01,meteohub,2013-03-06 15:14:00,
2013-03-06 10:19:00,55.9,30.0,30.06,SW,234,0.0,11.0,37,0.00,,,0.01,meteohub,2013-03-06 15:19:00,
2013-03-06 10:25:00,56.1,30.9,30.06,WSW,247,3.0,11.0,38,0.00,,,0.01,meteohub,2013-03-06 15:25:00,
2013-03-06 10:30:00,56.8,32.2,30.06,NE,54,2.0,12.0,39,0.00,,,0.01,meteohub,2013-03-06 15:30:00,
2013-03-06 10:35:00,57.2,31.8,30.06,West,268,6.0,12.0,38,0.00,,,0.01,meteohub,2013-03-06 15:35:00,
2013-03-06 10:40:00,57.2,31.8,30.06,NNW,329,0.0,11.0,38,0.00,,,0.01,meteohub,2013-03-06 15:40:00,
2013-03-06 10:45:00,57.4,32.0,30.06,SW,224,5.0,11.0,38,0.00,,,0.01,meteohub,2013-03-06 15:45:00,
2013-03-06 10:50:00,57.7,32.4,30.05,West,274,2.0,12.0,38,0.00,,,0.01,meteohub,2013-03-06 15:50:00,
2013-03-06 10:55:00,58.5,32.9,30.05,SW,232,0.0,12.0,38,0.00,,,0.01,meteohub,2013-03-06 15:55:00,
2013-03-06 11:00:00,59.2,33.6,30.05,WSW,246,6.0,10.0,38,0.00,,,0.01,meteohub,2013-03-06 16:00:00,
2013-03-06 11:05:00,58.8,32.5,30.04,SW,230,0.0,11.0,37,0.00,,,0.01,meteohub,2013-03-06 16:05:00,
2013-03-06 11:11:00,59.4,33.1,30.04,WSW,243,4.0,11.0,37,0.00,,,0.01,meteohub,2013-03-06 16:11:00,
2013-03-06 11:16:00,59.4,33.1,30.04,SW,219,7.0,11.0,37,0.00,,,0.01,meteohub,2013-03-06 16:16:00,
2013-03-06 11:21:00,59.7,34.0,30.04,NNW,333,0.0,11.0,38,0.00,,,0.01,meteohub,2013-03-06 16:21:00,
2013-03-06 11:26:00,60.4,34.0,30.04,WSW,253,0.0,11.0,37,0.00,,,0.01,meteohub,2013-03-06 16:26:00,
2013-03-06 11:31:00,60.6,34.2,30.04,NNW,337,0.0,17.0,37,0.00,,,0.01,meteohub,2013-03-06 16:31:00,
2013-03-06 11:36:00,61.0,34.5,30.04,WSW,243,5.0,17.0,37,0.00,,,0.01,meteohub,2013-03-06 16:36:00,
2013-03-06 11:41:00,61.0,34.5,30.04,SSE,160,0.0,10.0,37,0.00,,,0.01,meteohub,2013-03-06 16:41:00,
2013-03-06 11:46:00,61.2,35.4,30.04,SSW,198,2.0,16.0,38,0.00,,,0.01,meteohub,2013-03-06 16:46:00,
2013-03-06 11:51:00,61.3,35.6,30.03,SW,233,4.0,16.0,38,0.00,,,0.01,meteohub,2013-03-06 16:51:00,
2013-03-06 11:56:00,61.5,35.6,30.03,North,354,4.0,8.0,38,0.00,,,0.01,meteohub,2013-03-06 16:56:00,
2013-03-06 12:01:00,61.5,35.6,30.03,WSW,246,6.0,11.0,38,0.00,,,0.01,meteohub,2013-03-06 17:01:00,
2013-03-06 12:07:00,61.5,35.1,30.02,SW,229,6.0,11.0,37,0.00,,,0.01,meteohub,2013-03-06 17:07:00,
2013-03-06 12:12:00,61.2,35.4,30.02,SW,232,6.0,14.0,38,0.00,,,0.01,meteohub,2013-03-06 17:12:00,
2013-03-06 12:17:00,61.0,35.2,30.01,SSW,200,6.0,14.0,38,0.00,,,0.01,meteohub,2013-03-06 17:17:00,
2013-03-06 12:22:00,61.5,35.6,30.01,WSW,256,0.0,14.0,38,0.00,,,0.01,meteohub,2013-03-06 17:22:00,
2013-03-06 12:27:00,62.1,35.4,30.01,SW,230,10.0,10.0,37,0.00,,,0.01,meteohub,2013-03-06 17:27:00,
2013-03-06 12:32:00,61.9,36.0,30.01,SSW,210,5.0,11.0,38,0.00,,,0.01,meteohub,2013-03-06 17:32:00,
2013-03-06 12:37:00,61.3,34.9,30.01,SSW,195,1.0,12.0,37,0.00,,,0.01,meteohub,2013-03-06 17:37:00,
2013-03-06 12:42:00,61.5,35.1,30.01,SW,230,2.0,12.0,37,0.00,,,0.01,meteohub,2013-03-06 17:42:00,
2013-03-06 12:47:00,61.5,35.1,30.00,SW,229,5.0,12.0,37,0.00,,,0.01,meteohub,2013-03-06 17:47:00,
2013-03-06 12:52:00,62.1,36.1,30.00,SW,219,4.0,14.0,38,0.00,,,0.01,meteohub,2013-03-06 17:52:00,
2013-03-06 12:57:00,62.2,35.6,30.00,SW,232,6.0,14.0,37,0.00,,,0.01,meteohub,2013-03-06 17:57:00,
2013-03-06 13:02:00,62.4,35.8,29.99,WSW,256,4.0,14.0,37,0.00,,,0.01,meteohub,2013-03-06 18:02:00,
2013-03-06 13:07:00,62.6,35.2,29.99,WSW,244,1.0,12.0,36,0.00,,,0.01,meteohub,2013-03-06 18:07:00,
2013-03-06 13:13:00,62.2,34.9,29.99,West,261,0.0,12.0,36,0.00,,,0.01,meteohub,2013-03-06 18:13:00,
2013-03-06 13:18:00,62.4,35.1,29.99,WSW,241,13.0,18.0,36,0.00,,,0.01,meteohub,2013-03-06 18:18:00,
2013-03-06 13:23:00,62.6,36.0,29.99,SSW,199,0.0,18.0,37,0.00,,,0.01,meteohub,2013-03-06 18:23:00,
2013-03-06 13:28:00,63.1,35.8,29.99,SW,223,7.0,18.0,36,0.00,,,0.01,meteohub,2013-03-06 18:28:00,
2013-03-06 13:33:00,63.1,35.1,29.98,WSW,241,6.0,18.0,35,0.00,,,0.01,meteohub,2013-03-06 18:33:00,
2013-03-06 13:38:00,63.1,35.8,29.98,WNW,296,2.0,18.0,36,0.00,,,0.01,meteohub,2013-03-06 18:38:00,
2013-03-06 13:43:00,63.5,35.4,29.98,SW,215,8.0,18.0,35,0.00,,,0.01,meteohub,2013-03-06 18:43:00,
2013-03-06 13:48:00,63.3,35.2,29.98,SW,222,1.0,14.0,35,0.00,,,0.01,meteohub,2013-03-06 18:48:00,
2013-03-06 13:53:00,63.7,35.6,29.98,West,264,5.0,14.0,35,0.00,,,0.01,meteohub,2013-03-06 18:53:00,
2013-03-06 13:58:00,63.5,35.4,29.98,SW,233,3.0,14.0,35,0.00,,,0.01,meteohub,2013-03-06 18:58:00,
2013-03-06 14:04:00,63.5,34.7,29.97,SW,224,7.0,13.0,34,0.00,,,0.01,meteohub,2013-03-06 19:04:00,
2013-03-06 14:09:00,64.0,35.8,29.97,NE,41,0.0,13.0,35,0.00,,,0.01,meteohub,2013-03-06 19:09:00,
2013-03-06 14:14:00,64.2,34.5,29.97,SSW,212,2.0,13.0,33,0.00,,,0.01,meteohub,2013-03-06 19:14:00,
2013-03-06 14:19:00,63.7,34.0,29.96,SW,234,3.0,16.0,33,0.00,,,0.01,meteohub,2013-03-06 19:19:00,
2013-03-06 14:24:00,63.5,34.7,29.96,WSW,237,1.0,16.0,34,0.00,,,0.01,meteohub,2013-03-06 19:24:00,
2013-03-06 14:29:00,63.5,35.4,29.96,SW,222,0.0,13.0,35,0.00,,,0.01,meteohub,2013-03-06 19:29:00,
2013-03-06 14:34:00,63.1,35.1,29.96,SW,226,6.0,13.0,35,0.00,,,0.01,meteohub,2013-03-06 19:34:00,
2013-03-06 14:39:00,63.3,36.0,29.96,NE,41,1.0,13.0,36,0.00,,,0.01,meteohub,2013-03-06 19:39:00,
2013-03-06 14:45:00,63.7,35.6,29.96,WSW,253,1.0,13.0,35,0.00,,,0.01,meteohub,2013-03-06 19:45:00,
2013-03-06 14:50:00,63.7,34.7,29.96,SW,219,1.0,8.0,34,0.00,,,0.01,meteohub,2013-03-06 19:50:00,
2013-03-06 14:55:00,63.5,34.7,29.96,NE,45,1.0,11.0,34,0.00,,,0.01,meteohub,2013-03-06 19:55:00,
2013-03-06 15:00:00,63.7,34.7,29.96,WNW,288,7.0,11.0,34,0.00,,,0.01,meteohub,2013-03-06 20:00:00,
2013-03-06 15:05:00,63.0,33.4,29.96,SW,233,4.0,12.0,33,0.00,,,0.01,meteohub,2013-03-06 20:05:00,
2013-03-06 15:10:00,62.6,33.1,29.96,West,277,0.0,16.0,33,0.00,,,0.01,meteohub,2013-03-06 20:10:00,
2013-03-06 15:15:00,62.4,32.9,29.96,SW,216,8.0,16.0,33,0.00,,,0.01,meteohub,2013-03-06 20:15:00,
2013-03-06 15:21:00,62.4,33.6,29.96,SW,236,0.0,13.0,34,0.00,,,0.01,meteohub,2013-03-06 20:21:00,
2013-03-06 15:26:00,62.4,34.3,29.96,SW,232,7.0,13.0,35,0.00,,,0.01,meteohub,2013-03-06 20:26:00,
2013-03-06 15:31:00,62.1,34.2,29.96,North,359,6.0,10.0,35,0.00,,,0.01,meteohub,2013-03-06 20:31:00,
2013-03-06 15:36:00,62.1,34.2,29.96,WSW,251,2.0,10.0,35,0.00,,,0.01,meteohub,2013-03-06 20:36:00,
2013-03-06 15:41:00,61.9,33.3,29.96,East,90,0.0,10.0,34,0.00,,,0.01,meteohub,2013-03-06 20:41:00,
2013-03-06 15:46:00,61.3,33.4,29.96,SW,220,0.0,12.0,35,0.00,,,0.01,meteohub,2013-03-06 20:46:00,
2013-03-06 15:51:00,60.6,32.9,29.97,SW,223,3.0,12.0,35,0.00,,,0.01,meteohub,2013-03-06 20:51:00,
2013-03-06 15:56:00,60.1,32.4,29.97,West,275,0.0,13.0,35,0.00,,,0.01,meteohub,2013-03-06 20:56:00,
2013-03-06 16:02:00,60.1,33.1,29.97,North,357,0.0,13.0,36,0.00,,,0.01,meteohub,2013-03-06 21:02:00,
2013-03-06 16:07:00,59.9,32.2,29.97,SW,232,2.0,13.0,35,0.00,,,0.01,meteohub,2013-03-06 21:07:00,
2013-03-06 16:12:00,59.7,33.4,29.97,North,11,1.0,12.0,37,0.00,,,0.01,meteohub,2013-03-06 21:12:00,
2013-03-06 16:17:00,59.9,34.2,29.97,SSW,210,4.0,12.0,38,0.00,,,0.01,meteohub,2013-03-06 21:17:00,
2013-03-06 16:22:00,59.7,33.4,29.97,SSW,195,1.0,12.0,37,0.00,,,0.01,meteohub,2013-03-06 21:22:00,
2013-03-06 16:27:00,59.4,33.1,29.97,WSW,258,1.0,14.0,37,0.00,,,0.01,meteohub,2013-03-06 21:27:00,
2013-03-06 16:32:00,59.4,33.8,29.97,North,359,2.0,14.0,38,0.00,,,0.01,meteohub,2013-03-06 21:32:00,
2013-03-06 16:37:00,59.4,33.1,29.97,SW,223,6.0,14.0,37,0.00,,,0.01,meteohub,2013-03-06 21:37:00,
2013-03-06 16:42:00,59.0,32.7,29.97,SW,233,2.0,14.0,37,0.00,,,0.01,meteohub,2013-03-06 21:42:00,
2013-03-06 16:47:00,59.0,32.7,29.97,SW,224,5.0,14.0,37,0.00,,,0.01,meteohub,2013-03-06 21:47:00,
2013-03-06 16:52:00,58.8,33.3,29.97,SW,229,2.0,16.0,38,0.00,,,0.01,meteohub,2013-03-06 21:52:00,
2013-03-06 16:57:00,58.6,33.1,29.97,NE,37,0.0,16.0,38,0.00,,,0.01,meteohub,2013-03-06 21:57:00,
2013-03-06 17:02:00,58.3,32.7,29.97,SW,230,0.0,10.0,38,0.00,,,0.01,meteohub,2013-03-06 22:02:00,
2013-03-06 17:07:00,57.9,32.5,29.97,WSW,246,1.0,10.0,38,0.00,,,0.01,meteohub,2013-03-06 22:07:00,
2013-03-06 17:12:00,57.9,33.1,29.97,North,0,0.0,10.0,39,0.00,,,0.01,meteohub,2013-03-06 22:12:00,
2013-03-06 17:17:00,57.7,32.4,29.98,ENE,69,0.0,10.0,38,0.00,,,0.01,meteohub,2013-03-06 22:17:00,
2013-03-06 17:22:00,57.6,32.7,29.98,SE,136,0.0,10.0,39,0.00,,,0.01,meteohub,2013-03-06 22:22:00,
2013-03-06 17:27:00,57.0,32.4,29.98,SW,224,6.0,9.0,39,0.00,,,0.01,meteohub,2013-03-06 22:27:00,
2013-03-06 17:33:00,56.8,32.7,29.98,SW,227,0.0,13.0,40,0.00,,,0.01,meteohub,2013-03-06 22:33:00,
2013-03-06 17:38:00,56.7,32.5,29.98,North,0,4.0,13.0,40,0.00,,,0.01,meteohub,2013-03-06 22:38:00,
2013-03-06 17:43:00,56.7,32.5,29.98,SW,229,0.0,11.0,40,0.00,,,0.01,meteohub,2013-03-06 22:43:00,
2013-03-06 17:48:00,56.5,33.1,29.98,NW,306,1.0,10.0,41,0.00,,,0.01,meteohub,2013-03-06 22:48:00,
2013-03-06 17:53:00,55.9,32.5,29.98,SW,224,0.0,10.0,41,0.00,,,0.01,meteohub,2013-03-06 22:53:00,
2013-03-06 17:58:00,55.6,32.2,29.98,WSW,243,0.0,10.0,41,0.00,,,0.01,meteohub,2013-03-06 22:58:00,
2013-03-06 18:04:00,55.0,32.4,29.99,West,274,0.0,12.0,42,0.00,,,0.01,meteohub,2013-03-06 23:04:00,
2013-03-06 18:09:00,54.9,32.2,29.99,WSW,240,11.0,12.0,42,0.00,,,0.01,meteohub,2013-03-06 23:09:00,
2013-03-06 18:14:00,54.5,31.8,29.99,WSW,239,1.0,12.0,42,0.00,,,0.01,meteohub,2013-03-06 23:14:00,
2013-03-06 18:19:00,54.3,32.4,29.99,West,261,0.0,11.0,43,0.00,,,0.01,meteohub,2013-03-06 23:19:00,
2013-03-06 18:24:00,54.1,32.2,29.99,SW,226,0.0,11.0,43,0.00,,,0.01,meteohub,2013-03-06 23:24:00,
2013-03-06 18:29:00,54.0,32.0,29.99,WNW,301,0.0,10.0,43,0.00,,,0.01,meteohub,2013-03-06 23:29:00,
2013-03-06 18:34:00,53.6,32.2,30.00,WNW,289,1.0,9.0,44,0.00,,,0.01,meteohub,2013-03-06 23:34:00,
2013-03-06 18:39:00,53.4,32.0,30.00,North,7,0.0,12.0,44,0.00,,,0.01,meteohub,2013-03-06 23:39:00,
2013-03-06 18:44:00,53.2,31.8,30.00,WSW,257,0.0,12.0,44,0.00,,,0.01,meteohub,2013-03-06 23:44:00,
2013-03-06 18:50:00,53.2,32.4,30.01,SW,232,0.0,8.0,45,0.00,,,0.01,meteohub,2013-03-06 23:50:00,
2013-03-06 18:55:00,53.1,32.4,30.01,WSW,241,3.0,8.0,45,0.00,,,0.01,meteohub,2013-03-06 23:55:00,
2013-03-06 19:00:00,52.9,32.7,30.01,West,274,0.0,8.0,46,0.00,,,0.01,meteohub,2013-03-07 00:00:00,
2013-03-06 19:05:00,52.9,32.7,30.01,West,280,1.0,6.0,46,0.00,,,0.00,meteohub,2013-03-07 00:05:00,
2013-03-06 19:10:00,52.5,32.9,30.01,SW,223,1.0,7.0,47,0.00,,,0.00,meteohub,2013-03-07 00:10:00,
2013-03-06 19:15:00,52.5,32.9,30.01,WSW,246,7.0,7.0,47,0.00,,,0.00,meteohub,2013-03-07 00:15:00,
2013-03-06 19:20:00,52.5,32.9,30.02,NNE,25,0.0,7.0,47,0.00,,,0.00,meteohub,2013-03-07 00:20:00,
2013-03-06 19:25:00,52.3,33.3,30.02,SW,236,0.0,7.0,48,0.00,,,0.00,meteohub,2013-03-07 00:25:00,
2013-03-06 19:30:00,52.2,33.1,30.02,NW,313,0.0,7.0,48,0.00,,,0.00,meteohub,2013-03-07 00:30:00,
2013-03-06 19:36:00,52.0,33.4,30.02,West,268,0.0,3.0,49,0.00,,,0.00,meteohub,2013-03-07 00:36:00,
2013-03-06 19:41:00,52.0,33.4,30.02,WSW,244,0.0,6.0,49,0.00,,,0.00,meteohub,2013-03-07 00:41:00,
2013-03-06 19:46:00,51.6,33.1,30.02,WSW,256,0.0,6.0,49,0.00,,,0.00,meteohub,2013-03-07 00:46:00,
2013-03-06 19:51:00,51.6,33.6,30.03,West,277,0.0,5.0,50,0.00,,,0.00,meteohub,2013-03-07 00:51:00,
2013-03-06 19:56:00,51.6,33.6,30.03,NW,308,0.0,5.0,50,0.00,,,0.00,meteohub,2013-03-07 00:56:00,
2013-03-06 20:01:00,51.6,33.6,30.03,NW,318,0.0,5.0,50,0.00,,,0.00,meteohub,2013-03-07 01:01:00,
2013-03-06 20:07:00,51.4,33.4,30.03,NNW,342,0.0,5.0,50,0.00,,,0.00,meteohub,2013-03-07 01:07:00,
2013-03-06 20:12:00,51.3,33.3,30.03,West,267,0.0,4.0,50,0.00,,,0.00,meteohub,2013-03-07 01:12:00,
2013-03-06 20:17:00,51.1,33.1,30.04,West,277,1.0,1.0,50,0.00,,,0.00,meteohub,2013-03-07 01:17:00,
2013-03-06 20:22:00,51.1,33.6,30.04,West,278,0.0,1.0,51,0.00,,,0.00,meteohub,2013-03-07 01:22:00,
2013-03-06 20:27:00,50.7,33.3,30.04,WNW,288,0.0,1.0,51,0.00,,,0.00,meteohub,2013-03-07 01:27:00,
2013-03-06 20:32:00,50.5,33.1,30.05,WNW,288,0.0,1.0,51,0.00,,,0.00,meteohub,2013-03-07 01:32:00,
2013-03-06 20:37:00,50.4,32.9,30.05,WNW,288,0.0,1.0,51,0.00,,,0.00,meteohub,2013-03-07 01:37:00,
2013-03-06 20:42:00,50.4,32.9,30.05,WNW,298,0.0,1.0,51,0.00,,,0.00,meteohub,2013-03-07 01:42:00,
2013-03-06 20:47:00,50.2,33.3,30.06,NNW,333,0.0,1.0,52,0.00,,,0.00,meteohub,2013-03-07 01:47:00,
2013-03-06 20:52:00,50.2,33.3,30.06,NW,316,0.0,5.0,52,0.00,,,0.00,meteohub,2013-03-07 01:52:00,
2013-03-06 20:58:00,50.2,33.3,30.06,NW,312,0.0,5.0,52,0.00,,,0.00,meteohub,2013-03-07 01:58:00,
2013-03-06 21:03:00,50.2,33.6,30.06,NW,319,0.0,5.0,53,0.00,,,0.00,meteohub,2013-03-07 02:03:00,
2013-03-06 21:08:00,49.8,33.4,30.06,NW,319,0.0,1.0,53,0.00,,,0.00,meteohub,2013-03-07 02:08:00,
2013-03-06 21:13:00,49.8,33.4,30.06,NW,320,0.0,1.0,53,0.00,,,0.00,meteohub,2013-03-07 02:13:00,
2013-03-06 21:18:00,49.6,33.3,30.07,NW,322,0.0,1.0,53,0.00,,,0.00,meteohub,2013-03-07 02:18:00,
2013-03-06 21:23:00,49.5,33.1,30.07,NW,322,0.0,1.0,53,0.00,,,0.00,meteohub,2013-03-07 02:23:00,
2013-03-06 21:28:00,49.5,33.1,30.07,NW,322,0.0,1.0,53,0.00,,,0.00,meteohub,2013-03-07 02:28:00,
2013-03-06 21:33:00,49.5,33.1,30.08,NW,320,0.0,1.0,53,0.00,,,0.00,meteohub,2013-03-07 02:33:00,
2013-03-06 21:38:00,49.3,32.9,30.08,NW,320,0.0,1.0,53,0.00,,,0.00,meteohub,2013-03-07 02:38:00,
2013-03-06 21:43:00,49.3,32.9,30.08,NW,316,1.0,1.0,53,0.00,,,0.00,meteohub,2013-03-07 02:43:00,
2013-03-06 21:49:00,49.3,32.9,30.09,NNW,347,0.0,1.0,53,0.00,,,0.00,meteohub,2013-03-07 02:49:00,
2013-03-06 21:54:00,49.3,32.4,30.09,NNW,340,0.0,1.0,52,0.00,,,0.00,meteohub,2013-03-07 02:54:00,
2013-03-06 21:59:00,49.3,32.4,30.09,NNW,342,0.0,1.0,52,0.00,,,0.00,meteohub,2013-03-07 02:59:00,
2013-03-06 22:04:00,49.1,32.2,30.09,NNW,339,0.0,1.0,52,0.00,,,0.00,meteohub,2013-03-07 03:04:00,
2013-03-06 22:09:00,49.1,32.2,30.09,NNW,339,0.0,1.0,52,0.00,,,0.00,meteohub,2013-03-07 03:09:00,
2013-03-06 22:14:00,48.9,32.0,30.09,NNW,339,0.0,1.0,52,0.00,,,0.00,meteohub,2013-03-07 03:14:00,
2013-03-06 22:19:00,48.7,32.4,30.11,NNW,339,0.0,1.0,53,0.00,,,0.00,meteohub,2013-03-07 03:19:00,
2013-03-06 22:24:00,48.6,32.2,30.11,NNW,339,0.0,1.0,53,0.00,,,0.00,meteohub,2013-03-07 03:24:00,
2013-03-06 22:30:00,48.6,32.2,30.11,NNW,340,0.0,1.0,53,0.00,,,0.00,meteohub,2013-03-07 03:30:00,
2013-03-06 22:35:00,48.4,32.0,30.12,NNW,340,0.0,1.0,53,0.00,,,0.00,meteohub,2013-03-07 03:35:00,
2013-03-06 22:40:00,48.2,31.8,30.12,North,0,0.0,1.0,53,0.00,,,0.00,meteohub,2013-03-07 03:40:00,
2013-03-06 22:45:00,48.0,31.6,30.12,North,0,0.0,1.0,53,0.00,,,0.00,meteohub,2013-03-07 03:45:00,
2013-03-06 22:50:00,47.8,31.5,30.12,WNW,287,0.0,1.0,53,0.00,,,0.00,meteohub,2013-03-07 03:50:00,
2013-03-06 22:55:00,47.7,31.8,30.12,WNW,287,0.0,3.0,54,0.00,,,0.00,meteohub,2013-03-07 03:55:00,
2013-03-06 23:00:00,47.7,31.8,30.12,WNW,287,0.0,3.0,54,0.00,,,0.00,meteohub,2013-03-07 04:00:00,
2013-03-06 23:05:00,47.3,31.5,30.12,WNW,287,0.0,2.0,54,0.00,,,0.00,meteohub,2013-03-07 04:05:00,
2013-03-06 23:10:00,46.9,31.6,30.12,WNW,287,0.0,0.0,55,0.00,,,0.00,meteohub,2013-03-07 04:10:00,
2013-03-06 23:15:00,46.8,31.5,30.12,WNW,287,0.0,0.0,55,0.00,,,0.00,meteohub,2013-03-07 04:15:00,
2013-03-06 23:20:00,46.6,31.6,30.12,WNW,287,0.0,0.0,56,0.00,,,0.00,meteohub,2013-03-07 04:20:00,
2013-03-06 23:26:00,46.2,31.5,30.12,WNW,287,0.0,0.0,56,0.00,,,0.00,meteohub,2013-03-07 04:26:00,
2013-03-06 23:31:00,46.0,31.3,30.12,WNW,291,0.0,0.0,56,0.00,,,0.00,meteohub,2013-03-07 04:31:00,
2013-03-06 23:36:00,45.9,31.5,30.12,WNW,291,0.0,2.0,57,0.00,,,0.00,meteohub,2013-03-07 04:36:00,
2013-03-06 23:41:00,45.7,31.3,30.12,WNW,291,0.0,2.0,57,0.00,,,0.00,meteohub,2013-03-07 04:41:00,
2013-03-06 23:46:00,45.5,31.1,30.12,WNW,291,0.0,0.0,57,0.00,,,0.00,meteohub,2013-03-07 04:46:00,
2013-03-06 23:51:00,45.3,30.9,30.12,WNW,291,0.0,0.0,57,0.00,,,0.00,meteohub,2013-03-07 04:51:00,
2013-03-06 23:56:00,45.1,31.3,30.12,WNW,298,0.0,1.0,58,0.00,,,0.00,meteohub,2013-03-07 04:56:00,